Regional Weather Roundup
Issued by NWS

Home | Current Version | Previous Version | Graphics & Text | Print | Product List | Glossary On
Versions: 1 2 3 4 5 6 7 8 9 10 11 12 13 14 15 16 17 18 19 20 21 22 23 24 25 26 27 28 29 30 31 32 33 34 35 36 37 38 39 40 41 42 43 44 45 46 47 48 49 50
000
ASUS43 KIND 220009
RWRIN

WEATHER ROUNDUP FOR INDIANA
NATIONAL WEATHER SERVICE INDIANAPOLIS IN
700 PM EST SAT JAN 21 2017

NOTE: "FAIR" INDICATES FEW OR NO CLOUDS BELOW 12,000 FEET WITH NO
SIGNIFICANT WEATHER AND/OR OBSTRUCTIONS TO VISIBILITY.

* - STATION DOES NOT REPORT WEATHER SUCH AS PRECIPITATION OR FOG.

+ - STATION NOT QUALITY CONTROLLED BY THE NATIONAL WEATHER SERVICE.
    USE DATA WITH CAUTION...ESPECIALLY DEWPOINT AND RELATIVE
    HUMIDITY OBSERVATIONS.

INZ001>003-010>013-019-020-220100-
NORTHWEST INDIANA

CITY           SKY/WX    TMP DP  RH WIND       PRES   REMARKS
GARY /AIRPORT/ PTCLDY    54  46  76 SW3       29.54R
KNOX *+        PTCLDY    52  34  50 SW3       29.54R
LA PORTE +     PTCLDY    51  48  89 S3        29.55R
6HR MIN TEMP:  50; 6HR MAX TEMP:  60;

MICHIGAN CITY+ MOCLDY    54  50  87 CALM      29.55R
MONTICELLO +   CLEAR     56  48  74 S3        29.54S
6HR MIN TEMP:  55; 6HR MAX TEMP:  62;

RENSSELAER +   CLEAR     52  50  93 SW6       29.55R
VALPARAISO     PTCLDY    54  49  83 SW5       29.55R
6HR MIN TEMP:  54; 6HR MAX TEMP:  62;


$$

LMZ046-743>745-220100-
SOUTHERN LAKE MICHIGAN

STATION/POSITION TIME  TEMP    WIND        PRES    WAVE
                       AIR SEA DIR/SP/G            HT
                 (UTC) (F)     (DEG/KT/KT) (MB)    (FT)
BURNS HARBOR     2340   55     210/  8/  9 1001.0R
MICHIGAN CITY    2340   58     180/  5/  5   N/A

$$

INZ004-005-014>016-021>024-220100-
NORTH CENTRAL INDIANA

CITY           SKY/WX    TMP DP  RH WIND       PRES   REMARKS
GOSHEN         CLEAR     52  47  83 S5        29.55R
6HR MIN TEMP:  52; 6HR MAX TEMP:  61;

LOGANSPORT +   CLEAR     50  46  87 S8        29.56R
PERU/GRISSOM   CLEAR     54  53  99 S6        29.55R
6HR MIN TEMP:  53; 6HR MAX TEMP:  64;

ROCHESTER +    CLEAR     55  50  82 CALM      29.55S
SOUTH BEND     MOCLDY    52  46  80 SW3       29.56R
6HR MIN TEMP:  51; 6HR MAX TEMP:  61;

WARSAW +       CLEAR     54  48  82 CALM      29.55R

$$

INZ006>009-017-018-025>027-220100-
NORTHEAST INDIANA

CITY           SKY/WX    TMP DP  RH WIND       PRES   REMARKS
ANGOLA *+      CLEAR     54  52  94 SE6       29.56S
AUBURN +       CLEAR     52  48  87 CALM      29.58S
FORT WAYNE     CLEAR     52  48  86 SE8       29.58R
6HR MIN TEMP:  52; 6HR MAX TEMP:  63;

HUNTINGTON +   CLEAR     55  52  89 S6        29.57R
6HR MIN TEMP:  55; 6HR MAX TEMP:  62;

KENDALLVILLE + CLEAR     53  50  89 S7        29.57R

$$

INZ028-029-035-036-043>045-051>053-220100-
WEST CENTRAL INDIANA

CITY           SKY/WX    TMP DP  RH WIND       PRES   REMARKS
CRAWFORDSVL +  CLEAR     54  51  91 S7        29.56R
6HR MIN TEMP:  54; 6HR MAX TEMP:  62;

GREENCASTLE +  CLEAR     55  50  82 S5        29.58S
LAFAYETTE      CLEAR     55  49  80 SW3       29.55R
6HR MIN TEMP:  55; 6HR MAX TEMP:  63;

TERRE HAUTE    PTCLDY    57  51  80 S6        29.56R
6HR MIN TEMP:  57; 6HR MAX TEMP:  65;


$$

INZ030>032-037>040-046>048-054>057-064-065-220100-
CENTRAL INDIANA

CITY           SKY/WX    TMP DP  RH WIND       PRES   REMARKS
CP ATTERBURY + PTCLDY    55  50  82 S5        29.60R
COLUMBUS       CLEAR     55  52  88 S7        29.60S
FRANKFORT +    CLOUDY    56  51  85 S6        29.58R
6HR MIN TEMP:  56; 6HR MAX TEMP:  66;

GREENWOOD *+   CLEAR     56  51  83 CALM      29.59S
6HR MIN TEMP:  56; 6HR MAX TEMP:  65;

INDIANAPOLIS   PTCLDY    57  49  74 S8        29.58R
6HR MIN TEMP:  55; 6HR MAX TEMP:  66;

-EAGLE CREEK   CLEAR     60  50  69 S5        29.57S
6HR MIN TEMP:  60; 6HR MAX TEMP:  67;

KOKOMO +       CLEAR     56  52  86 S12       29.57R
6HR MIN TEMP:  55; 6HR MAX TEMP:  64;

MARION +       CLEAR     54  52  94 S9        29.58S
MT COMFORT *+  CLEAR     55  52  88 S7        29.59S
SHELBYVILLE    CLEAR     56  51  84 SE8       29.59R
6HR MIN TEMP:  55; 6HR MAX TEMP:  63;

ZIONSVILLE +   CLEAR     56  49  79 S7        29.58S
6HR MIN TEMP:  55; 6HR MAX TEMP:  64;


$$

INZ033-034-041-042-049-050-058-059-220100-
EAST CENTRAL INDIANA

CITY           SKY/WX    TMP DP  RH WIND       PRES   REMARKS
MUNCIE         CLEAR     58  52  80 S6        29.59R
6HR MIN TEMP:  58; 6HR MAX TEMP:  65;


$$

INZ060-061-067>069-081>083-085>088-220100-
SOUTHWEST INDIANA

CITY           SKY/WX    TMP DP  RH WIND       PRES   REMARKS
EVANSVILLE     CLOUDY    59  49  69 CALM      29.59R
6HR MIN TEMP:  59; 6HR MAX TEMP:  69;

HUNTINGBURG *+ PTCLDY    59  51  75 SE3       29.59S
6HR MIN TEMP:  59; 6HR MAX TEMP:  67;

WASHINGTON +   PTCLDY    57  49  74 S7        29.58R
6HR MIN TEMP:  57; 6HR MAX TEMP:  67;


$$

INZ062-063-066-070>080-084-089>092-220100-
SOUTH CENTRAL AND SOUTHEAST INDIANA

CITY           SKY/WX    TMP DP  RH WIND       PRES   REMARKS
BLOOMINGTON    PTCLDY    58  48  69 S3        29.59R
6HR MIN TEMP:  55; 6HR MAX TEMP:  67;

MADISON *+     CLEAR     59  50  72 SE3       29.64S
NORTH VERNON + PTCLDY    61  52  72 S5        29.61S
SEYMOUR +      PTCLDY    59  50  72 S7        29.60S

$$




USA.gov is the U.S. government's official web portal to all federal, state and local government web resources and services.